RANA Weather Reports


time (UTC)temp
C
wind
direction
speed
KPH
gust
KPH
rain 1hr
cm
rain 24hr
cm
rain mn
cm
humidity
%
barometer
mb
20260506034011 8 226 29.0 32.2 0.00 0.00 0.00 91
20260506033511 8 224 29.0 32.2 0.00 0.00 0.00 91
20260506033010 10 217 35.4 35.4 0.00 0.00 0.00 91
20260506032510 10 212 35.4 40.2 0.00 0.00 0.00 92
20260506032015 10 211 32.2 35.4 0.00 0.00 0.00 92
20260506031511 10 209 32.2 35.4 0.00 0.00 0.00 92
20260506031010 10 206 32.2 32.2 0.00 0.00 0.00 92
20260506030511 8 212 25.7 29.0 0.00 0.00 0.00 92
20260506030011 8 216 20.9 25.7 0.00 0.00 0.00 92
20260506025510 8 216 25.7 29.0 0.00 0.00 0.00 91
20260506025010 8 227 20.9 20.9 0.00 0.00 0.00 91
20260506024512 8 236 20.9 25.7 0.00 0.00 0.00 91
20260506024010 8 241 20.9 25.7 0.00 0.00 0.00 91
20260506023511 8 240 25.7 32.2 0.00 0.00 0.00 91
20260506023011 10 248 20.9 25.7 0.00 0.00 0.00 91
20260506022510 10 259 25.7 32.2 0.00 0.00 0.00 91
20260506022013 8 245 20.9 20.9 0.00 0.00 0.00 91
20260506021511 8 242 14.5 17.7 0.00 0.00 0.00 92
20260506021011 10 236 17.7 17.7 0.00 0.00 0.00 92
20260506020510 10 255 17.7 17.7 0.00 0.00 0.00 92
20260506020010 8 245 17.7 20.9 0.00 0.00 0.00 92
20260506015509 8 232 20.9 20.9 0.00 0.00 0.00 91
20260506015018 8 234 20.9 25.7 0.00 0.00 0.00 91
20260506014511 8 247 25.7 25.7 0.00 0.00 0.00 91
20260506014010 8 229 20.9 25.7 0.00 0.00 0.00 91
20260506013511 8 219 20.9 20.9 0.00 0.00 0.00 91
20260506013011 8 224 20.9 20.9 0.00 0.00 0.00 91
20260506012509 8 243 20.9 25.7 0.00 0.00 0.00 90
20260506012010 8 239 25.7 25.7 0.00 0.00 0.00 90
20260506011510 8 241 25.7 29.0 0.00 0.00 0.00 90
20260506011010 8 244 29.0 29.0 0.00 0.00 0.00 90
20260506010510 10 251 25.7 29.0 0.00 0.00 0.00 90
20260506010010 10 238 20.9 25.7 0.00 0.00 0.00 90
20260506005510 10 237 25.7 25.7 0.00 0.00 0.00 90
20260506005010 10 238 25.7 25.7 0.00 0.00 0.00 90
20260506004511 10 243 25.7 25.7 0.00 0.00 0.00 89
20260506004010 10 247 25.7 25.7 0.00 0.00 0.00 89
20260506003510 10 243 20.9 25.7 0.00 0.00 0.00 89
20260506003011 10 239 25.7 25.7 0.00 0.00 0.00 89
20260506002509 10 232 20.9 25.7 0.00 0.00 0.00 88
20260506002011 10 229 25.7 29.0 0.00 0.00 0.00 88
20260506001510 10 235 20.9 20.9 0.00 0.00 0.00 88
20260506001010 10 245 17.7 17.7 0.00 0.00 0.00 87
20260506000511 10 238 17.7 17.7 0.00 0.00 0.00 87
20260505235510 10 233 17.7 17.7 0.00 0.00 0.00 86
20260505235010 10 239 17.7 17.7 0.00 0.00 0.00 85
20260505234510 10 242 14.5 14.5 0.00 0.00 0.00 84
20260505234011 10 255 11.3 14.5 0.00 0.00 0.00 84
20260505233510 11 273 11.3 11.3 0.00 0.00 0.00 83
20260505233011 11 279 14.5 14.5 0.00 0.00 0.00 84
20260505231010 11 279 11.3 11.3 0.00 0.00 0.00 84
20260505230511 11 288 6.4 11.3 0.00 0.00 0.00 85
20260505230010 11 291 6.4 11.3 0.00 0.00 0.00 85
20260505225509 11 297 6.4 6.4 0.00 0.00 0.00 85
20260505225010 11 294 11.3 11.3 0.00 0.00 0.00 86
20260505224510 10 165 0.0 0.0 0.00 0.00 0.00 85
20260505224018 11 311 3.2 3.2 0.00 0.00 0.00 85
20260505223510 11 311 3.2 3.2 0.00 0.00 0.00 86
20260505223011 11 311 6.4 11.3 0.00 0.00 0.00 87
20260505222510 11 312 11.3 14.5 0.00 0.00 0.00 87
20260505222013 11 307 14.5 14.5 0.00 0.00 0.00 88
20260505221511 11 329 17.7 20.9 0.00 0.00 0.00 89
20260505221010 10 324 17.7 20.9 0.00 0.00 0.00 89
20260505220510 10 309 14.5 17.7 0.00 0.00 0.00 89
20260505220010 10 325 20.9 25.7 0.00 0.00 0.00 89
20260505215510 10 322 20.9 25.7 0.00 0.00 0.00 89
20260505215015 10 314 20.9 20.9 0.00 0.00 0.00 89
20260505214510 10 295 17.7 17.7 0.00 0.00 0.00 88
20260505214010 10 296 17.7 20.9 0.00 0.00 0.00 88
20260505213510 10 290 25.7 29.0 0.00 0.00 0.00 88
20260505213010 10 286 29.0 29.0 0.00 0.00 0.00 88
20260505212511 10 286 25.7 32.2 0.00 0.00 0.00 88
20260505212011 10 285 25.7 29.0 0.00 0.00 0.00 88
20260505211511 10 288 29.0 32.2 0.00 0.00 0.00 88
20260505211010 10 280 40.2 43.5 0.00 0.00 0.00 88
20260505210510 10 280 35.4 40.2 0.00 0.00 0.00 88
20260505210010 10 275 35.4 40.2 0.00 0.00 0.00 87
20260505205510 10 284 35.4 40.2 0.00 0.00 0.00 87
20260505205009 10 279 29.0 32.2 0.00 0.00 0.00 85
20260505204511 10 299 20.9 25.7 0.00 0.00 0.00 86
20260505204010 10 268 32.2 40.2 0.00 0.00 0.00 85
20260505203517 10 276 29.0 40.2 0.00 0.00 0.00 85
20260505203011 10 280 46.7 54.7 0.00 0.00 0.00 84
20260505202511 10 274 54.7 61.2 0.00 0.00 0.00 83
20260505202019 10 273 64.4 72.4 0.00 0.00 0.00 81
20260505201510 11 278 64.4 75.6 0.00 0.00 0.00 79
20260505201010 13 277 35.4 40.2 0.00 0.00 0.00 73
20260505200511 15 325 6.4 11.3 0.00 0.00 0.00 70
20260505200011 15 17 11.3 14.5 0.00 0.00 0.00 70
20260505195509 15 42 17.7 17.7 0.00 0.00 0.00 70
20260505195010 15 53 17.7 20.9 0.00 0.00 0.00 70
20260505194511 15 56 17.7 25.7 0.00 0.00 0.00 70
20260505194010 15 58 20.9 25.7 0.00 0.00 0.00 69
20260505193511 15 54 25.7 25.7 0.00 0.00 0.00 69
20260505193011 15 58 29.0 35.4 0.00 0.00 0.00 68
20260505192510 15 59 29.0 35.4 0.00 0.00 0.00 68
20260505192013 16 52 32.2 35.4 0.00 0.00 0.00 67
20260505191511 16 54 32.2 35.4 0.00 0.00 0.00 67
20260505191010 16 47 32.2 40.2 0.00 0.00 0.00 66
20260505190510 16 47 32.2 35.4 0.00 0.00 0.00 66
20260505190011 16 50 32.2 40.2 0.00 0.00 0.00 66
20260505185511 16 56 29.0 32.2 0.00 0.00 0.00 66
20260505185011 16 56 25.7 29.0 0.00 0.00 0.00 65
20260505184511 16 63 17.7 20.9 0.00 0.00 0.00 64
20260505184011 16 66 11.3 14.5 0.00 0.00 0.00 64
20260505183510 16 51 14.5 20.9 0.00 0.00 0.00 64
20260505183011 16 42 11.3 17.7 0.00 0.00 0.00 64
20260505182510 16 45 11.3 17.7 0.00 0.00 0.00 63
20260505182013 16 41 11.3 14.5 0.00 0.00 0.00 63
20260505181510 16 28 11.3 17.7 0.00 0.00 0.00 63
20260505181010 16 13 20.9 25.7 0.00 0.00 0.00 63
20260505180510 16 17 14.5 17.7 0.00 0.00 0.00 62
20260505180011 16 21 17.7 25.7 0.00 0.00 0.00 62
20260505175510 16 12 25.7 29.0 0.00 0.00 0.00 62
20260505175010 16 9 25.7 29.0 0.00 0.00 0.00 62
20260505174510 16 5 25.7 29.0 0.00 0.00 0.00 62
20260505174009 16 358 20.9 29.0 0.00 0.00 0.00 62
20260505173511 16 9 25.7 32.2 0.00 0.00 0.00 61
20260505173015 17 2 25.7 32.2 0.00 0.00 0.00 61
20260505172511 17 3 32.2 35.4 0.00 0.00 0.00 61
20260505172012 17 358 25.7 35.4 0.00 0.00 0.00 61
20260505171010 17 6 32.2 40.2 0.00 0.00 0.00 61
20260505170510 17 8 32.2 40.2 0.00 0.00 0.00 61
20260505170010 17 13 32.2 43.5 0.00 0.00 0.00 61
20260505165511 17 7 25.7 29.0 0.00 0.00 0.00 61
20260505165010 17 8 29.0 35.4 0.00 0.00 0.00 61
20260505164511 17 8 32.2 40.2 0.00 0.00 0.00 61
20260505164010 17 359 29.0 32.2 0.00 0.00 0.00 61
20260505163511 17 3 25.7 32.2 0.00 0.00 0.00 60
20260505163012 17 10 25.7 29.0 0.00 0.00 0.00 60
20260505162510 17 2 29.0 35.4 0.00 0.00 0.00 60
20260505162010 17 5 25.7 29.0 0.00 0.00 0.00 59
20260505161511 17 10 25.7 29.0 0.00 0.00 0.00 59
20260505161010 17 355 32.2 35.4 0.00 0.00 0.00 59
20260505160510 17 358 32.2 40.2 0.00 0.00 0.00 58
20260505153010 18 350 32.2 40.2 0.00 0.00 0.00 53
20260505152510 18 355 35.4 46.7 0.00 0.00 0.00 53
20260505152012 18 344 32.2 35.4 0.00 0.00 0.00 53
20260505151510 18 350 29.0 35.4 0.00 0.00 0.00 53
20260505151010 18 342 32.2 43.5 0.00 0.00 0.00 52
20260505150511 18 344 32.2 40.2 0.00 0.00 0.00 52
20260505140510 20 354 20.9 32.2 0.00 0.00 0.00 47
20260505125010 22 107 6.4 11.3 0.00 0.00 0.00 38
20260505124510 22 82 3.2 6.4 0.00 0.00 0.00 39
20260505124010 22 91 6.4 11.3 0.00 0.00 0.00 39
20260505123511 22 106 6.4 11.3 0.00 0.00 0.00 39
20260505123010 22 56 6.4 14.5 0.00 0.00 0.00 40
20260505122509 22 33 11.3 14.5 0.00 0.00 0.00 41
20260505122013 22 37 11.3 14.5 0.00 0.00 0.00 40
20260505121510 22 55 3.2 6.4 0.00 0.00 0.00 40
20260505121010 22 52 6.4 11.3 0.00 0.00 0.00 40
20260505120510 22 358 6.4 11.3 0.00 0.00 0.00 40
20260505120010 22 144 6.4 6.4 0.00 0.00 0.00 40
20260505115509 22 118 6.4 11.3 0.00 0.00 0.00 40
20260505115010 22 91 6.4 11.3 0.00 0.00 0.00 41
20260505114510 22 80 6.4 11.3 0.00 0.00 0.00 40
20260505114014 22 5 3.2 11.3 0.00 0.00 0.00 43
20260505113511 22 58 6.4 11.3 0.00 0.00 0.00 43
20260505113011 21 38 6.4 11.3 0.00 0.00 0.00 43
20260505112511 21 48 6.4 11.3 0.00 0.00 0.00 43
20260505112012 22 19 6.4 11.3 0.00 0.00 0.00 43
20260505111511 22 66 3.2 6.4 0.00 0.00 0.00 44
20260505111011 22 39 11.3 14.5 0.00 0.00 0.00 43
20260505110510 22 132 11.3 14.5 0.00 0.00 0.00 43
20260505101511 20 27 6.4 11.3 0.00 0.00 0.00 47
20260505101010 21 51 6.4 14.5 0.00 0.00 0.00 47
20260505100510 21 350 3.2 11.3 0.00 0.00 0.00 48
20260505100011 20 7 3.2 3.2 0.00 0.00 0.00 48
20260505095510 20 12 0.0 3.2 0.00 0.00 0.00 48
20260505095010 20 331 0.0 6.4 0.00 0.00 0.00 48
20260505094510 20 1 3.2 11.3 0.00 0.00 0.00 48
20260505094010 20 5 3.2 6.4 0.00 0.00 0.00 48
20260505093511 20 326 3.2 3.2 0.00 0.00 0.00 49
20260505093015 20 331 3.2 14.5 0.00 0.00 0.00 49
20260505092510 18 329 6.4 6.4 0.00 0.00 0.00 49
20260505092012 18 344 3.2 11.3 0.00 0.00 0.00 49
20260505091510 18 335 3.2 6.4 0.00 0.00 0.00 49
20260505091010 20 7 11.3 14.5 0.00 0.00 0.00 48
20260505090510 20 344 3.2 3.2 0.00 0.00 0.00 48
20260505090011 20 355 6.4 6.4 0.00 0.00 0.00 49
20260505085510 18 351 6.4 11.3 0.00 0.00 0.00 50
20260505085010 20 301 0.0 3.2 0.00 0.00 0.00 50
20260505084510 20 352 6.4 6.4 0.00 0.00 0.00 51
20260505084010 18 334 3.2 3.2 0.00 0.00 0.00 52
20260505083511 18 336 3.2 3.2 0.00 0.00 0.00 53
20260505083011 17 334 3.2 6.4 0.00 0.00 0.00 53
20260505082510 17 21 6.4 6.4 0.00 0.00 0.00 54
20260505082013 17 299 0.0 0.0 0.00 0.00 0.00 54
20260505081510 17 305 3.2 3.2 0.00 0.00 0.00 54
20260505081010 17 306 0.0 0.0 0.00 0.00 0.00 56
20260505080510 17 325 3.2 6.4 0.00 0.00 0.00 56
20260505080010 17 319 3.2 3.2 0.00 0.00 0.00 56
20260505075511 17 332 3.2 3.2 0.00 0.00 0.00 56
20260505075011 17 333 3.2 3.2 0.00 0.00 0.00 56
20260505074504 17 298 3.2 3.2 0.00 0.00 0.00 55
20260505074010 17 336 3.2 3.2 0.00 0.00 0.00 54
20260505073510 17 30 0.0 3.2 0.00 0.00 0.00 55
20260505073011 17 30 0.0 0.0 0.00 0.00 0.00 55
20260505072511 17 123 0.0 0.0 0.00 0.00 0.00 55
20260505072013 17 123 0.0 0.0 0.00 0.00 0.00 55
20260505071510 17 123 0.0 0.0 0.00 0.00 0.00 57
20260505071011 17 123 0.0 0.0 0.00 0.00 0.00 59
20260505070511 15 123 0.0 0.0 0.00 0.00 0.00 60
20260505070010 15 123 0.0 3.2 0.00 0.00 0.00 61
20260505065011 15 123 0.0 0.0 0.00 0.00 0.00 61
20260505064516 16 123 0.0 0.0 0.00 0.00 0.00 59
20260505064011 16 123 0.0 0.0 0.00 0.00 0.00 58
20260505063511 15 123 0.0 0.0 0.00 0.00 0.00 58
20260505063011 15 124 0.0 3.2 0.00 0.00 0.00 58
20260505062510 15 124 3.2 3.2 0.00 0.00 0.00 58
20260505062013 15 138 3.2 3.2 0.00 0.00 0.00 58
20260505061010 15 147 6.4 6.4 0.00 0.00 0.00 58
20260505060510 15 143 3.2 3.2 0.00 0.00 0.00 58
20260505055510 15 135 3.2 3.2 0.00 0.00 0.00 57
20260505055010 15 156 3.2 3.2 0.00 0.00 0.00 57
20260505054510 15 158 3.2 3.2 0.00 0.00 0.00 57
20260505054010 15 157 3.2 3.2 0.00 0.00 0.00 57
20260505053010 15 157 0.0 3.2 0.00 0.00 0.00 57
20260505051510 15 185 3.2 3.2 0.00 0.00 0.00 57
20260505051010 15 185 0.0 3.2 0.00 0.00 0.00 57
20260505050510 15 185 3.2 3.2 0.00 0.00 0.00 57
20260505041511 15 190 0.0 0.0 0.00 0.00 0.00 55
20260505041010 15 190 3.2 3.2 0.00 0.00 0.00 54
20260505035010 16 79 0.0 0.0 0.00 0.00 0.00 54
20260505034509 16 79 0.0 3.2 0.00 0.00 0.00 54